User: anonymous   Login
Location: Unspecified
(0.0000°N, 0.0000°E)
Time: 07:11:43
(UTC+00:00)
Language:

GALILEO 9 (205) - Orbit

View from above orbital plane
View from above orbital plane
View from above satellite
View from above satellite

Ground track
Ground track

The orbit is defined by the following mean orbital elements,

1 40889U          26144.30399159 +.00000000 +00000-0 +00000-0 0 00008
2 40889  54.9357 222.4171 0006406 263.0112  96.9692  1.67409242    00
Epoch (UTC): 24 May 2026 07:17:44
Eccentricity: 0.0006406
inclination: 54.9357°
perigee height: 23563 km
apogee height: 23602 km
right ascension of ascending node: 222.4171°
argument of perigee: 263.0112°
revolutions per day: 1.67409242
mean anomaly at epoch: 96.9692°

The dashed part of the orbit path shows where the satellite is in the earth's shadow,  

DLR